Terminal Aerodrome Forecast
Issued by NWS

Home | Current Version | Previous Version | Text Only | Print | Product List | Glossary On
Versions: 1 2 3 4 5 6 7 8 9 10 11 12 13 14 15
000
FTPA31 PHFO 230529
TAFHNY
TAF
PHNY 230529Z 2306/2406 05012G18KT P6SM FEW015
     FM232000 05018G28KT P6SM SCT020 SCT040
     FM240500 04015KT P6SM SCT015 SCT035=

USA.gov is the U.S. government's official web portal to all federal, state and local government web resources and services.